Regional Weather Roundup
Issued by NWS

Current Version | Previous Version | Text Only | Print | Product List | Glossary On
Versions: 1 2 3 4 5 6 7 8 9 10 11 12 13 14 15 16 17 18 19 20 21 22 23 24 25 26 27 28 29 30 31 32 33 34 35 36 37 38 39 40 41 42 43 44 45 46 47 48 49 50
000
ASUS42 KFFC 021710
RWRGA
WEATHER ROUNDUP FOR GEORGIA
NATIONAL WEATHER SERVICE PEACHTREE CITY GA
1200 PM EST TUE MAR 02 2021

NOTE: "FAIR" INDICATES FEW OR NO CLOUDS BELOW 12,000 FEET WITH NO
SIGNIFICANT WEATHER AND/OR OBSTRUCTIONS TO VISIBILITY.

* = USE WITH CAUTION. THE STATIONS MARKED WITH AN ASTERISK MAY NOT
REPORT WEATHER SUCH AS PRECIPITATION, FOG, OR THUNDER AND ARE NOT
QUALITY CONTROLLED BY NWS.

THE REMARK "TC" DENOTES TEMPERATURE READING IN DEGREES CELSIUS.

GAZ001>058-021800-
NORTH GEORGIA

CITY           SKY/WX    TMP DP  RH WIND       PRES   REMARKS
ATLANTA        CLOUDY    48  30  49 E12       30.23R
ATHENS         CLOUDY    48  28  46 E9        30.26F
CHAMBLEE       CLOUDY    47  28  47 VRB3      30.24S
PEACHTREE CITY CLOUDY    46  33  60 CALM      30.25R
ROME           CLOUDY    45  30  55 NE8       30.25F
WEST ATLANTA   CLOUDY    49  29  46 E8        30.24R
GAINESVILLE    CLOUDY    45  26  47 E7        30.27S
CARTERSVILLE   CLOUDY    45  32  60 N3        30.26F


CITY           SKY/WX    TMP DP  RH WIND       PRES   REMARKS
DALTON*        CLOUDY    45  32  61 N5        30.29F
LAWRENCEVILLE* CLOUDY    46  26  45 E13       30.24S
MARIETTA       CLOUDY    47  30  50 E7        30.24R
KENNESAW*      CLOUDY    46  32  58 E6        30.25R
CANTON*        CLOUDY    46  30  53 E5        30.26F
BLAIRSVILLE*   CLOUDY    41  29  63 W5        30.25R
$$

GAZ059>098-102>109-021800-
CENTRAL GEORGIA

CITY           SKY/WX    TMP DP  RH WIND       PRES   REMARKS
AUGUSTA-BUSH   CLOUDY    52  27  38 NE8       30.24F
AUGUSTA-DANIEL CLOUDY    51  25  36 E9        30.24F
COLUMBUS       LGT RAIN  44  41  89 N3        30.23R
MACON          LGT RAIN  50  41  71 N7        30.22F
ROBINS AFB     LGT RAIN  50  41  72 N6        30.21S


CITY           SKY/WX    TMP DP  RH WIND       PRES   REMARKS
LAGRANGE*      MIX PCPN  41  39  92 CALM      30.24F
SYLVANIA*      CLOUDY    54  32  43 NE10      30.24S
$$

GAZ099>101-110>166-021800-
SOUTH GEORGIA

CITY           SKY/WX    TMP DP  RH WIND       PRES   REMARKS
SAVANNAH       CLOUDY    57  36  45 NE10      30.21F
VALDOSTA       LGT RAIN  55  52  89 N13       30.16F FOG
ALMA           RAIN      53  50  89 NE5       30.18F FOG
ST SIMONS      RAIN      56  52  86 NE10      30.17F FOG
FT STEWART     RAIN      52  48  85 N6        30.19S
ALBANY         LGT RAIN  50  47  89 NE7       30.22S FOG
HUNTER AFB     LGT RAIN  55  37  50 NE12G20   30.19S
MOODY AFB      LGT RAIN  52  50  93 NE9       30.16F FOG
BRUNSWICK      LGT RAIN  53  49  86 NE10G17   30.19F FOG


CITY           SKY/WX    TMP DP  RH WIND       PRES   REMARKS
BAINBRIDGE*    LGT RAIN  51  49  95 NE10      30.18F
MOULTRIE*      DRIZZLE   52  50  93 NE5       30.18F
VIDALIA*       CLOUDY    55  32  41 E9        30.22F
WAYCROSS*      RAIN      54  53  96 NE5       30.19R
DOUGLAS*       DRIZZLE   52  50  93 N5        30.22S
$$




USA.gov is the U.S. government's official web portal to all federal, state and local government web resources and services.